Location: Kellogg
(38.0159°N, 90.0546°W)
Time: 08:54:44
(UTC+00:00)

S-56A Canister/Altair - Pass Details

Date: 19 September 2024
Orbit: 636 x 2487 km, 38.9° (Epoch: 09 October)

Event Time Altitude Azimuth Distance (km) Brightness Sun altitude
Rises 23:04:28 0° 243° (WSW) 2,934 12.0 10.3°
Reaches altitude 10° 23:06:36 10° 239° (WSW) 2,076 11.2 9.9°
Maximum altitude 23:11:11 63° 159° (SSE) 845 7.8 9.0°
Drops below altitude 10° 23:17:14 10° 79° (E) 2,715 9.7 7.8°
Sets 23:20:23 0° 76° (ENE) 3,934 10.5 7.2°
